Precipitable_Water
0.56 0.55 0.55 0.54 0.52 0.50 0.51 0.50 0.49 0.48 0.48 0.49 0.50 0.51 0.53 0.55 0.54 0.52 0.49 0.44 0.41 0.43 0.45 0.44 0.43 0.41 0.37 0.27 0.32 0.57 0.48 0.44 0.44 0.40 0.33 0.29 0.27 0.26 0.22 0.26 0.28 0.24 0.25 0.27 0.29 0.27 0.25
0.57 0.54 0.52 0.52 0.51 0.50 0.49 0.48 0.47 0.46 0.46 0.47 0.50 0.53 0.53 0.52 0.51 0.50 0.47 0.42 0.39 0.38 0.39 0.39 0.39 0.40 0.30 0.15 0.50 0.50 0.44 0.46 0.42 0.39 0.35 0.35 0.31 0.32 0.23 0.23 0.21 0.26 0.26 0.25 0.24 0.24 0.26
0.53 0.51 0.51 0.50 0.49 0.49 0.47 0.46 0.44 0.44 0.45 0.49 0.51 0.51 0.51 0.49 0.49 0.49 0.42 0.34 0.33 0.34 0.35 0.37 0.37 0.38 0.24 0.24 0.47 0.45 0.45 0.42 0.45 0.42 0.36 0.38 0.34 0.27 0.29 0.23 0.31 0.27 0.16 0.18 0.18 0.21 0.23
0.53 0.51 0.49 0.47 0.47 0.46 0.46 0.46 0.45 0.45 0.47 0.50 0.50 0.50 0.49 0.49 0.48 0.44 0.37 0.35 0.37 0.39 0.40 0.41 0.43 0.39 0.24 0.43 0.53 0.48 0.48 0.44 0.47 0.45 0.40 0.39 0.37 0.28 0.24 0.27 0.22 0.17 0.18 0.11 0.17 0.24 0.28
0.53 0.50 0.50 0.48 0.48 0.46 0.46 0.47 0.46 0.46 0.48 0.49 0.47 0.48 0.48 0.47 0.44 0.40 0.36 0.36 0.40 0.42 0.41 0.45 0.41 0.36 0.27 0.51 0.41 0.47 0.48 0.40 0.41 0.43 0.40 0.39 0.34 0.27 0.27 0.16 0.13 0.16 0.10 0.14 0.18 0.27 0.26
0.50 0.49 0.47 0.46 0.46 0.46 0.47 0.45 0.44 0.45 0.47 0.47 0.45 0.45 0.45 0.45 0.41 0.40 0.37 0.36 0.39 0.42 0.41 0.43 0.36 0.28 0.36 0.35 0.39 0.42 0.47 0.41 0.34 0.32 0.31 0.32 0.28 0.19 0.19 0.17 0.09 0.13 0.14 0.15 0.14 0.20 0.23
0.51 0.49 0.48 0.44 0.43 0.43 0.44 0.45 0.47 0.48 0.48 0.44 0.42 0.43 0.44 0.43 0.41 0.40 0.39 0.36 0.27 0.27 0.28 0.22 0.25 0.24 0.29 0.39 0.44 0.41 0.43 0.38 0.35 0.30 0.20 0.29 0.18 0.14 0.20 0.23 0.23 0.19 0.16 0.13 0.13 0.15 0.18
0.52 0.49 0.48 0.44 0.44 0.43 0.43 0.44 0.47 0.49 0.48 0.43 0.40 0.43 0.44 0.43 0.42 0.39 0.40 0.24 0.29 0.38 0.21 0.33 0.33 0.33 0.37 0.41 0.33 0.36 0.44 0.30 0.27 0.21 0.25 0.20 0.16 0.24 0.24 0.21 0.18 0.15 0.12 0.10 0.13 0.16 0.16
0.55 0.51 0.50 0.45 0.44 0.44 0.43 0.44 0.47 0.49 0.45 0.42 0.41 0.44 0.44 0.41 0.44 0.38 0.30 0.32 0.47 0.44 0.23 0.28 0.35 0.35 0.34 0.39 0.29 0.29 0.35 0.29 0.23 0.19 0.20 0.16 0.18 0.22 0.18 0.15 0.12 0.12 0.13 0.14 0.14 0.16 0.16
0.60 0.54 0.52 0.48 0.46 0.45 0.44 0.45 0.46 0.47 0.44 0.41 0.40 0.43 0.43 0.41 0.37 0.37 0.29 0.39 0.48 0.46 0.15 0.24 0.30 0.35 0.35 0.35 0.28 0.37 0.38 0.27 0.24 0.17 0.16 0.13 0.20 0.17 0.15 0.14 0.17 0.13 0.19 0.17 0.16 0.14 0.10
0.62 0.58 0.54 0.49 0.46 0.46 0.44 0.44 0.46 0.46 0.45 0.43 0.42 0.43 0.43 0.44 0.33 0.27 0.31 0.43 0.49 0.39 0.09 0.28 0.29 0.42 0.31 0.27 0.27 0.34 0.38 0.29 0.18 0.18 0.19 0.13 0.17 0.17 0.15 0.16 0.19 0.15 0.22 0.19 0.17 0.13 0.13
0.66 0.59 0.56 0.52 0.47 0.47 0.45 0.43 0.45 0.46 0.45 0.43 0.42 0.44 0.41 0.37 0.42 0.37 0.42 0.48 0.40 0.17 0.10 0.21 0.27 0.25 0.23 0.24 0.25 0.29 0.29 0.31 0.28 0.20 0.21 0.18 0.25 0.23 0.22 0.23 0.22 0.22 0.19 0.16 0.15 0.13 0.09
0.74 0.64 0.57 0.52 0.47 0.47 0.46 0.44 0.43 0.43 0.42 0.40 0.41 0.42 0.35 0.34 0.27 0.41 0.46 0.36 0.16 0.12 0.22 0.20 0.21 0.24 0.23 0.20 0.21 0.21 0.21 0.18 0.16 0.13 0.14 0.17 0.19 0.27 0.29 0.22 0.25 0.21 0.18 0.10 0.08 0.09 0.07
0.84 0.70 0.63 0.55 0.47 0.46 0.45 0.43 0.42 0.44 0.43 0.41 0.41 0.38 0.38 0.33 0.39 0.46 0.36 0.22 0.13 0.20 0.21 0.27 0.23 0.21 0.18 0.21 0.21 0.20 0.22 0.19 0.23 0.21 0.17 0.16 0.15 0.24 0.27 0.23 0.18 0.18 0.20 0.12 0.07 0.07 0.07
1.05 0.84 0.69 0.63 0.53 0.49 0.45 0.42 0.42 0.43 0.43 0.44 0.43 0.42 0.38 0.38 0.45 0.47 0.28 0.17 0.18 0.23 0.26 0.21 0.22 0.19 0.19 0.22 0.20 0.20 0.20 0.21 0.23 0.23 0.16 0.15 0.15 0.23 0.23 0.22 0.19 0.16 0.12 0.17 0.13 0.14 0.11
1.15 1.02 0.89 0.66 0.58 0.53 0.48 0.44 0.42 0.41 0.43 0.46 0.38 0.38 0.37 0.40 0.49 0.37 0.23 0.20 0.24 0.29 0.26 0.24 0.18 0.21 0.19 0.22 0.20 0.20 0.20 0.24 0.24 0.25 0.25 0.21 0.13 0.17 0.19 0.19 0.18 0.15 0.16 0.10 0.13 0.07 0.06
1.21 1.11 1.00 0.87 0.66 0.56 0.51 0.47 0.43 0.41 0.43 0.48 0.43 0.34 0.45 0.45 0.44 0.29 0.21 0.24 0.28 0.31 0.30 0.24 0.23 0.22 0.22 0.21 0.22 0.20 0.21 0.25 0.26 0.24 0.25 0.20 0.17 0.14 0.18 0.14 0.11 0.10 0.10 0.12 0.13 0.13 0.09
1.26 1.16 1.05 0.94 0.80 0.72 0.58 0.50 0.45 0.44 0.43 0.43 0.38 0.30 0.46 0.48 0.28 0.32 0.29 0.33 0.35 0.31 0.32 0.30 0.29 0.26 0.25 0.26 0.23 0.23 0.23 0.25 0.28 0.26 0.20 0.21 0.15 0.11 0.10 0.11 0.10 0.10 0.09 0.09 0.07 0.07 0.09
1.25 1.19 1.10 0.97 0.83 0.78 0.71 0.60 0.52 0.45 0.45 0.42 0.33 0.37 0.46 0.44 0.26 0.29 0.33 0.33 0.34 0.31 0.29 0.29 0.27 0.29 0.29 0.25 0.20 0.24 0.28 0.31 0.29 0.23 0.17 0.16 0.11 0.07 0.08 0.11 0.12 0.09 0.10 0.10 0.09 0.09 0.07
1.26 1.20 1.10 0.97 0.85 0.83 0.79 0.70 0.59 0.53 0.51 0.45 0.38 0.32 0.39 0.35 0.34 0.32 0.32 0.31 0.29 0.33 0.30 0.31 0.30 0.29 0.26 0.23 0.24 0.21 0.24 0.27 0.25 0.19 0.17 0.13 0.09 0.06 0.04 0.05 0.08 0.06 0.07 0.08 0.07 0.06 0.06
1.25 1.18 1.09 0.95 0.93 0.90 0.83 0.77 0.69 0.59 0.52 0.46 0.37 0.33 0.39 0.32 0.30 0.29 0.31 0.31 0.29 0.27 0.31 0.31 0.27 0.27 0.24 0.20 0.21 0.21 0.20 0.21 0.19 0.18 0.16 0.12 0.08 0.07 0.07 0.08 0.09 0.09 0.08 0.08 0.08 0.08 0.07
1.21 1.17 1.08 1.04 1.04 0.96 0.82 0.72 0.60 0.52 0.50 0.43 0.36 0.34 0.36 0.33 0.33 0.30 0.30 0.28 0.27 0.29 0.30 0.29 0.30 0.28 0.25 0.25 0.21 0.17 0.16 0.15 0.13 0.17 0.15 0.13 0.07 0.08 0.07 0.08 0.09 0.08 0.08 0.09 0.09 0.11 0.12
1.18 1.13 1.09 1.07 1.04 0.96 0.80 0.67 0.56 0.52 0.50 0.42 0.41 0.40 0.32 0.31 0.29 0.28 0.29 0.30 0.32 0.35 0.35 0.34 0.30 0.30 0.25 0.21 0.21 0.20 0.18 0.16 0.14 0.12 0.11 0.10 0.09 0.08 0.06 0.08 0.09 0.06 0.09 0.11 0.12 0.14 0.13
1.14 1.10 1.07 1.04 1.00 0.92 0.76 0.63 0.53 0.46 0.44 0.41 0.37 0.34 0.29 0.28 0.30 0.30 0.32 0.33 0.34 0.35 0.30 0.29 0.29 0.23 0.24 0.26 0.21 0.16 0.13 0.12 0.11 0.10 0.12 0.09 0.10 0.10 0.07 0.08 0.04 0.10 0.15 0.14 0.12 0.13 0.15
1.08 1.08 1.05 1.01 0.96 0.83 0.60 0.50 0.46 0.42 0.41 0.39 0.40 0.35 0.31 0.29 0.32 0.35 0.36 0.36 0.34 0.30 0.28 0.26 0.24 0.24 0.22 0.17 0.11 0.10 0.10 0.10 0.11 0.13 0.12 0.13 0.11 0.09 0.06 0.07 0.08 0.11 0.12 0.12 0.11 0.10 0.14
1.08 1.05 1.03 0.97 0.89 0.67 0.55 0.49 0.46 0.46 0.44 0.42 0.42 0.45 0.36 0.31 0.32 0.37 0.32 0.28 0.27 0.25 0.22 0.22 0.23 0.21 0.18 0.13 0.10 0.06 0.05 0.07 0.08 0.10 0.15 0.15 0.15 0.11 0.09 0.07 0.06 0.10 0.16 0.16 0.15 0.08 0.14
1.03 1.03 0.97 0.92 0.77 0.61 0.53 0.49 0.47 0.44 0.46 0.44 0.46 0.53 0.44 0.35 0.38 0.32 0.29 0.27 0.26 0.22 0.19 0.20 0.17 0.16 0.16 0.12 0.08 0.07 0.07 0.10 0.07 0.08 0.10 0.11 0.12 0.10 0.10 0.09 0.10 0.15 0.16 0.16 0.09 0.09 0.14
0.97 0.96 0.94 0.82 0.66 0.58 0.54 0.47 0.45 0.47 0.47 0.46 0.46 0.45 0.31 0.31 0.37 0.38 0.33 0.26 0.23 0.21 0.15 0.18 0.14 0.16 0.14 0.09 0.09 0.09 0.09 0.10 0.10 0.11 0.10 0.09 0.09 0.09 0.10 0.08 0.06 0.15 0.13 0.10 0.12 0.14 0.14
0.95 0.92 0.86 0.73 0.62 0.57 0.52 0.50 0.49 0.45 0.44 0.41 0.33 0.39 0.39 0.32 0.34 0.35 0.32 0.32 0.29 0.26 0.19 0.18 0.15 0.16 0.17 0.12 0.13 0.12 0.10 0.11 0.09 0.07 0.13 0.09 0.12 0.11 0.11 0.11 0.15 0.15 0.14 0.16 0.16 0.14 0.14
Wind_Speed
3 3 3 4 5 5 6 7 8 9 9 10 11 11 12 13 13 12 11 8 7 6 6 5 5 6 5 5 5 7 8 8 8 8 7 7 7 7 7 7 7 8 9 10 11 11 12
5 5 5 5 6 7 8 8 9 10 10 10 11 12 13 13 12 11 10 8 7 6 6 6 6 6 6 6 8 9 9 9 9 8 8 8 8 8 9 9 8 9 11 13 14 14 13
6 6 6 7 7 8 9 9 10 10 10 10 11 12 13 13 12 12 10 8 7 7 7 7 7 8 8 8 10 10 10 10 10 10 9 9 9 8 10 10 10 11 13 14 14 13 12
6 6 7 7 8 9 9 10 10 10 10 10 12 13 13 12 12 12 10 9 8 8 8 8 9 9 9 11 12 12 12 11 10 10 9 9 9 10 10 11 12 12 12 12 13 9 12
7 7 7 8 8 9 9 10 10 10 10 11 12 13 13 13 13 12 10 8 8 8 9 9 9 10 11 11 11 12 11 10 11 9 9 10 9 10 11 11 12 12 13 13 14 11 11
7 7 7 8 8 9 9 9 10 10 11 12 12 12 13 13 12 11 9 8 8 9 9 10 10 10 11 12 13 13 12 11 10 10 9 9 9 10 11 10 12 11 12 13 14 14 16
7 8 8 8 8 9 9 10 10 10 11 12 12 12 12 12 11 10 9 8 9 9 10 10 12 12 13 12 12 11 10 9 8 8 7 9 8 10 11 12 13 14 15 17 19 20 19
9 9 9 9 9 10 10 10 10 11 11 12 12 13 13 13 12 11 9 8 9 10 11 11 11 11 11 10 9 9 7 6 6 7 6 8 9 10 11 11 13 15 18 20 22 20 21
10 10 10 10 10 10 11 11 11 12 12 12 13 13 14 14 13 11 9 9 11 11 10 11 11 11 10 9 8 8 7 7 8 8 10 10 12 13 14 16 17 18 19 20 22 23 24
12 12 11 11 11 12 12 11 12 12 13 13 14 14 14 15 11 12 11 12 12 12 10 10 10 10 10 9 8 8 9 9 11 11 14 15 14 14 15 17 18 20 20 21 23 23 23
13 13 13 13 13 13 13 13 13 13 14 14 15 15 15 14 13 12 12 12 12 11 11 11 10 11 10 9 9 10 11 12 13 16 14 17 16 17 18 19 20 21 23 24 25 26 25
15 15 14 14 14 14 14 14 14 15 15 16 16 15 15 13 13 13 13 12 12 10 13 11 11 11 11 11 12 13 14 15 16 17 17 19 20 20 20 22 22 24 24 26 25 23 24
17 16 16 16 15 15 15 15 15 16 16 16 16 16 15 14 14 14 13 12 12 9 12 11 12 12 14 14 14 16 16 16 15 17 18 22 22 20 20 22 21 21 21 23 23 20 23
18 18 18 17 17 16 16 16 16 16 17 17 17 16 15 14 14 14 13 12 11 13 13 15 15 16 16 16 16 16 15 16 18 19 20 19 22 21 21 20 22 23 21 20 24 23 27
21 20 19 19 18 18 17 17 17 17 17 17 17 15 14 14 14 13 12 12 14 14 14 15 17 17 16 15 16 16 18 18 19 19 19 21 23 23 22 23 23 24 23 23 28 29 29
23 22 20 20 19 19 18 18 18 18 18 18 16 16 16 15 13 13 13 14 14 15 17 17 17 17 17 17 17 18 19 21 19 20 21 22 25 24 24 24 23 24 26 25 26 28 29
25 24 22 21 20 19 19 19 19 19 19 18 17 16 15 15 14 14 14 15 16 17 18 17 18 19 18 18 19 22 20 23 22 23 23 23 23 25 25 25 26 29 28 27 28 28 30
28 26 24 23 22 21 20 20 20 20 19 18 17 17 16 16 16 16 16 17 17 17 18 19 19 19 19 20 22 22 21 21 22 23 23 24 24 27 28 31 26 26 27 28 28 30 30
29 27 26 25 24 23 22 22 21 21 20 19 19 19 19 19 19 19 18 18 18 19 19 19 19 20 21 21 22 22 21 21 22 23 23 24 25 27 26 27 26 26 28 30 32 33 35
30 29 27 25 24 23 23 23 23 23 22 21 20 20 20 20 21 20 20 20 20 20 20 21 21 22 22 22 22 23 23 23 23 24 25 27 27 27 28 29 32 34 35 35 33 32 34
30 29 27 26 25 25 24 23 23 23 22 22 21 22 21 21 21 21 21 21 20 21 21 22 22 23 22 23 23 24 23 24 25 26 26 26 29 30 33 33 33 35 36 36 35 33 30
29 29 27 27 27 26 25 24 24 23 22 22 22 21 21 21 21 20 21 21 21 21 22 24 24 23 24 23 24 23 24 25 26 27 27 28 30 32 33 33 34 35 33 33 32 29 29
31 27 26 26 26 26 26 25 24 23 23 22 23 22 22 22 20 20 21 21 22 21 24 23 22 22 22 22 23 24 25 26 27 26 28 29 30 31 32 30 33 34 29 27 25 23 24
30 28 27 25 25 25 24 23 23 23 24 23 22 21 20 20 20 21 21 21 21 23 21 21 21 21 22 23 25 26 27 28 29 30 29 29 29 29 31 31 28 27 25 23 23 23 23
35 28 24 23 23 22 22 22 21 20 22 22 21 21 20 20 20 19 19 19 18 19 19 19 20 20 22 23 24 25 26 27 29 28 27 27 27 28 26 26 27 26 25 23 20 22 22
29 27 22 19 18 18 18 18 17 18 18 18 18 20 20 19 20 20 18 18 17 18 19 19 20 21 21 22 23 25 26 26 25 28 27 26 25 24 24 24 24 22 21 22 21 21 21
33 25 20 17 16 16 15 15 16 15 17 18 19 20 19 18 19 18 17 17 17 17 18 19 20 21 22 23 25 25 27 26 26 25 25 25 25 25 24 24 22 21 23 22 17 21 25
33 31 26 19 14 14 14 13 13 13 16 17 17 17 16 16 15 15 16 16 16 17 18 19 20 23 23 23 25 26 25 26 25 26 25 23 22 21 21 20 22 20 20 20 22 24 26
29 28 25 23 20 17 13 12 12 12 13 13 14 13 12 12 11 10 11 13 14 16 16 20 21 23 24 24 25 25 26 26 25 25 24 22 21 20 19 19 20 21 17 19 21 23 25
Wind_Direction
260 272 287 299 308 313 318 322 325 327 328 330 332 331 332 332 331 332 332 329 325 323 324 325 325 327 325 327 317 316 313 314 311 307 303 305 304 297 294 302 294 286 291 293 290 282 280
261 272 282 293 302 307 311 315 318 321 324 327 330 330 330 330 331 330 328 320 316 314 314 314 312 313 312 312 308 310 309 308 307 303 300 301 297 293 291 288 288 289 291 288 285 281 280
261 266 277 287 296 301 306 310 313 316 319 323 327 329 329 329 329 328 323 316 311 309 310 311 309 308 311 306 306 305 303 301 299 296 293 291 292 290 292 293 291 292 296 296 286 281 281
263 268 277 285 293 299 304 307 309 312 314 319 323 326 326 326 326 325 321 313 306 306 306 306 305 305 306 305 303 303 300 293 295 293 289 287 290 286 285 290 293 291 293 298 297 280 284
268 271 279 287 293 297 302 305 307 309 312 316 320 323 325 324 323 320 314 309 305 305 304 303 306 305 306 305 307 306 302 297 292 286 289 286 288 288 292 292 299 293 288 287 298 283 287
272 275 282 289 296 299 302 303 305 307 311 315 318 321 324 325 322 317 309 299 300 304 301 303 304 309 305 305 304 300 297 293 288 289 289 289 292 293 294 293 288 289 290 293 292 291 284
272 276 282 289 294 299 302 304 305 308 312 315 317 317 320 323 322 315 309 298 299 298 312 303 303 305 307 306 308 305 301 297 289 289 290 289 300 288 285 281 285 291 290 291 291 293 285
270 274 280 286 291 296 299 301 303 306 309 312 314 315 315 316 314 312 302 297 295 293 300 304 307 311 310 311 308 316 312 302 296 300 293 306 291 293 293 294 293 294 294 291 291 292 290
269 272 278 283 288 292 295 297 299 303 306 309 311 312 312 312 307 304 304 299 296 298 297 303 305 309 307 309 306 307 308 300 297 300 303 288 294 295 297 296 295 291 287 290 288 295 293
270 272 277 281 285 289 291 292 295 299 303 306 308 308 310 309 300 300 296 298 297 298 302 299 303 304 303 299 298 299 298 295 295 299 302 291 292 295 296 293 293 291 292 293 296 300 291
269 271 275 279 282 286 288 289 292 296 299 303 305 305 307 309 298 297 295 296 296 299 308 300 300 302 300 295 287 294 296 295 296 295 298 291 295 297 294 291 295 288 294 292 291 289 292
267 269 273 277 280 283 285 286 289 293 297 300 301 302 304 298 295 295 294 294 294 303 290 296 299 298 295 291 290 288 294 299 297 295 291 287 294 291 290 295 292 291 297 295 291 288 287
265 268 271 275 278 281 283 283 287 290 294 298 299 298 297 294 291 292 290 291 298 286 294 297 297 298 298 292 291 295 296 302 299 303 301 299 297 295 296 296 300 302 300 297 296 290 284
266 266 268 272 275 279 281 282 284 289 293 295 296 295 293 291 291 288 287 291 284 286 292 291 294 294 292 294 292 293 290 294 303 300 297 298 299 298 299 296 295 295 291 286 287 287 289
263 265 267 269 272 276 278 280 282 286 290 293 292 290 290 290 289 286 285 288 278 287 290 296 296 294 290 292 290 293 295 295 299 302 295 300 293 298 299 297 296 297 293 288 289 286 288
259 261 265 268 270 274 276 278 281 284 286 288 287 286 287 289 285 284 285 276 278 285 289 289 289 290 292 290 290 291 290 296 295 298 297 298 296 295 296 297 297 292 292 293 290 290 284
254 258 262 265 268 271 274 276 280 282 282 283 283 284 282 283 282 286 281 280 284 286 287 287 287 289 288 288 289 291 292 296 295 296 298 297 293 296 300 298 296 296 294 295 291 286 288
252 255 259 262 266 269 273 276 278 280 278 277 278 279 279 279 283 283 281 286 286 286 290 287 288 288 288 289 290 289 289 293 294 296 296 296 295 295 293 300 297 295 295 294 290 292 289
248 253 256 259 263 267 271 274 277 277 274 272 273 274 278 276 278 279 280 285 287 288 288 289 286 290 291 290 290 293 293 292 295 297 296 298 296 300 298 300 301 301 299 297 294 290 287
247 249 253 257 260 266 272 273 274 273 269 269 273 276 278 277 276 276 277 279 282 288 286 287 286 288 289 288 289 290 291 290 293 295 295 297 293 290 290 295 295 295 296 295 291 290 291
244 248 249 253 257 265 270 274 274 270 265 266 271 272 273 276 278 277 278 277 280 282 286 289 289 286 285 284 289 287 291 291 294 294 295 296 295 296 295 295 296 297 297 295 291 289 289
241 244 250 253 257 262 267 271 272 267 263 265 268 271 276 277 278 277 279 279 277 283 284 287 285 285 287 287 287 288 290 292 292 294 295 297 299 301 299 298 298 297 297 296 294 293 295
241 245 248 253 257 260 264 267 268 263 261 266 268 271 274 278 275 277 278 280 282 283 289 290 287 289 287 288 291 291 293 294 295 295 294 297 299 303 300 302 302 299 300 302 302 301 297
239 244 249 254 256 258 262 262 266 263 259 263 267 270 273 274 277 278 281 284 285 288 285 289 291 291 291 293 294 293 294 294 294 294 294 297 300 299 300 304 300 302 306 304 301 301 302
236 245 246 256 256 255 258 261 263 264 259 261 266 268 272 277 278 282 283 283 288 292 291 291 293 292 294 296 298 299 301 300 299 296 295 295 297 300 301 299 301 304 307 307 305 300 300
232 239 246 252 250 253 257 259 259 261 261 260 265 268 274 274 282 281 280 280 283 287 291 292 293 296 298 298 299 300 299 300 302 303 299 299 299 298 302 302 302 306 305 308 305 300 306
231 234 240 248 248 252 256 260 260 263 261 264 269 271 273 274 281 280 279 277 285 288 291 293 294 299 301 301 300 300 301 301 301 300 301 302 299 292 295 297 301 302 304 306 306 300 309
229 234 237 237 246 251 254 257 258 264 267 273 275 271 269 273 282 282 283 284 288 291 292 293 301 302 304 304 304 303 305 303 305 305 305 300 300 299 302 303 299 303 303 302 299 305 309
224 230 231 236 242 251 250 253 264 274 276 275 272 272 268 269 266 279 294 297 296 297 294 300 299 303 303 306 306 306 306 307 305 303 307 301 300 300 300 297 299 304 307 306 307 308 311